This is the latest recevied weather packets stored in our database for station/object KY4OP-13. If no packets are shown the sender has not sent any weather packets the latest 10 day(s).
| Time | Temp. | Humidity | Pressure | Rain* | Wind** | Luminosity | Snow |
|---|---|---|---|---|---|---|---|
| 1777496771 | 15° C | 98% | 1010.4 hPa | 1.78 mm | - | - | - |
| 1777496469 | 15° C | 98% | 1010.5 hPa | 1.78 mm | - | - | - |
| 1777496165 | 15° C | 98% | 1010.4 hPa | 4.83 mm | - | - | - |
| 1777495861 | 15° C | 98% | 1010.7 hPa | 6.6 mm | - | - | - |
| 1777495557 | 15° C | 98% | 1010.6 hPa | 4.83 mm | - | - | - |
| 1777495253 | 15° C | 98% | 1010.7 hPa | 3.05 mm | - | - | - |
| 1777494951 | 15° C | 98% | 1010.6 hPa | 0 mm | - | - | - |
| 1777494648 | 15° C | 98% | 1010.4 hPa | 1.27 mm | - | - | - |
| 1777494345 | 15° C | 98% | 1010.5 hPa | 1.27 mm | - | - | - |
| 1777494041 | 15° C | 98% | 1010.6 hPa | 3.05 mm | - | - | - |
| 1777493739 | 15° C | 98% | 1010.5 hPa | 1.78 mm | - | - | - |
| 1777493437 | 14.44° C | 97% | 1010.6 hPa | 0 mm | - | - | - |
| 1777493132 | 14.44° C | 97% | 1011 hPa | 0 mm | - | - | - |
| 1777492830 | 15° C | 97% | 1011.1 hPa | 0 mm | - | - | - |
| 1777492526 | 15° C | 97% | 1011.4 hPa | 0 mm | - | - | - |
| 1777492222 | 15° C | 97% | 1011.2 hPa | 0 mm | - | - | - |
| 1777491920 | 15° C | 97% | 1011.4 hPa | 0 mm | - | - | - |
| 1777491616 | 15° C | 97% | 1011.4 hPa | 0 mm | - | - | - |
| 1777491314 | 15° C | 97% | 1011.3 hPa | 0 mm | - | - | - |
| 1777491010 | 15° C | 97% | 1011.4 hPa | 1.27 mm | - | - | - |
| 1777490706 | 14.44° C | 97% | 1011.6 hPa | 1.27 mm | - | - | - |
| 1777490403 | 14.44° C | 96% | 1011.6 hPa | 0 mm | - | - | - |
| 1777490099 | 14.44° C | 96% | 1012.2 hPa | 0 mm | - | - | - |
| 1777489796 | 14.44° C | 96% | 1012.1 hPa | 0 mm | - | - | - |
| 1777489494 | 15° C | 95% | 1012 hPa | 0 mm | - | - | - |
* Rain latest hour (hover to see other rain measurements)
** Current wind speed in m/s (hover to see current wind gust speed)